When you browse on this site, cookies collect data to enhance your experience and personalize the content and advertising you see.
Visit our Privacy Policy to learn more. By continuing to use the site, you agree to this use of cookies and data.
  • En España
  • Lista de países
  • Para 7 días
  • Temperatura del agua
  • El tiempo en el mapa
  • Informadores
  • user-avatar
    Iniciar sesión

    Tiempo cada hora Lorca

    Hoy, 6 Junio, Sábado

    Tiempo Temperatura Precipitaciones Viento Presión Humedad
    00:00 +24°C° 0 mm 1 mps 729 mmHg 53%
    01:00 +23°C° 0 mm 1 mps 728 mmHg 52%
    02:00 +23°C° 0 mm 1 mps 728 mmHg 51%
    03:00 +23°C° 0 mm 1 mps 728 mmHg 51%
    04:00 +23°C° 0 mm 1 mps 728 mmHg 50%
    05:00 +24°C° 0 mm 1 mps 728 mmHg 49%
    06:00 +25°C° 0 mm 1 mps 728 mmHg 45%
    07:00 +26°C° 0 mm 1 mps 728 mmHg 42%
    08:00 +27°C° 0 mm 1 mps 728 mmHg 39%
    09:00 +28°C° 0 mm 1 mps 728 mmHg 35%
    10:00 +29°C° 0 mm 2 mps 728 mmHg 33%
    11:00 +30°C° 0 mm 2 mps 728 mmHg 30%
    12:00 +31°C° 0 mm 3 mps 728 mmHg 28%
    13:00 +33°C° 0 mm 4 mps 727 mmHg 26%
    14:00 +33°C° 0 mm 5 mps 727 mmHg 25%
    15:00 +34°C° 0 mm 6 mps 726 mmHg 23%
    16:00 +34°C° 0 mm 6 mps 726 mmHg 23%
    17:00 +33°C° 0 mm 6 mps 726 mmHg 22%
    18:00 +33°C° 0 mm 6 mps 725 mmHg 22%
    19:00 +32°C° 0 mm 6 mps 725 mmHg 25%
    20:00 +29°C° 0 mm 5 mps 726 mmHg 29%
    21:00 +28°C° 0 mm 5 mps 726 mmHg 32%
    22:00 +27°C° 0 mm 4 mps 726 mmHg 36%
    23:00 +26°C° 0 mm 3 mps 726 mmHg 40%

    Mañana, 7 Junio, Domingo

    Tiempo Temperatura Precipitaciones Viento Presión Humedad
    00:00 +25°C° 0 mm 2 mps 726 mmHg 43%
    01:00 +24°C° 0 mm 3 mps 726 mmHg 45%
    02:00 +24°C° 0 mm 3 mps 725 mmHg 46%
    03:00 +22°C° 0 mm 3 mps 725 mmHg 47%
    04:00 +22°C° 0 mm 3 mps 725 mmHg 47%
    05:00 +22°C° 0 mm 3 mps 726 mmHg 47%
    06:00 +22°C° 0 mm 4 mps 726 mmHg 47%
    07:00 +25°C° 0 mm 4 mps 726 mmHg 43%
    08:00 +26°C° 0 mm 5 mps 726 mmHg 39%
    09:00 +27°C° 0 mm 6 mps 727 mmHg 35%
    10:00 +28°C° 0 mm 6 mps 727 mmHg 34%
    11:00 +28°C° 0 mm 6 mps 727 mmHg 33%
    12:00 +29°C° 0 mm 5 mps 727 mmHg 32%
    13:00 +29°C° 0 mm 5 mps 727 mmHg 32%
    14:00 +29°C° 0 mm 5 mps 726 mmHg 31%
    15:00 +30°C° 0 mm 5 mps 726 mmHg 31%
    16:00 +29°C° 0 mm 6 mps 726 mmHg 33%
    17:00 +28°C° 0 mm 6 mps 726 mmHg 35%
    18:00 +28°C° 0 mm 6 mps 726 mmHg 37%
    19:00 +27°C° 0 mm 5 mps 726 mmHg 38%
    20:00 +26°C° 0 mm 5 mps 726 mmHg 39%
    21:00 +25°C° 0 mm 5 mps 726 mmHg 40%
    22:00 +25°C° 0 mm 4 mps 726 mmHg 42%
    23:00 +24°C° 0 mm 3 mps 726 mmHg 45%

    Pasado mañana, 8 Junio, Lunes

    Tiempo Temperatura Precipitaciones Viento Presión Humedad
    00:00 +24°C° 0 mm 3 mps 726 mmHg 47%
    01:00 +24°C° 0 mm 2 mps 726 mmHg 50%
    02:00 +23°C° 0 mm 2 mps 726 mmHg 52%
    03:00 +23°C° 0 mm 2 mps 726 mmHg 54%
    04:00 +21°C° 0.2 mm 2 mps 726 mmHg 56%
    05:00 +21°C° 0.2 mm 2 mps 726 mmHg 58%
    06:00 +21°C° 0.2 mm 2 mps 726 mmHg 61%
    07:00 +23°C° 0.5 mm 2 mps 727 mmHg 57%
    08:00 +23°C° 0.5 mm 2 mps 727 mmHg 53%
    09:00 +24°C° 0.5 mm 2 mps 727 mmHg 50%
    10:00 +25°C° 1 mm 3 mps 727 mmHg 49%
    11:00 +25°C° 1 mm 4 mps 727 mmHg 49%
    12:00 +25°C° 1 mm 5 mps 727 mmHg 49%
    13:00 +25°C° 1.8 mm 5 mps 727 mmHg 51%
    14:00 +25°C° 1.8 mm 5 mps 727 mmHg 53%
    15:00 +25°C° 1.8 mm 5 mps 727 mmHg 55%
    16:00 +23°C° 1.3 mm 5 mps 727 mmHg 59%
    17:00 +22°C° 1.3 mm 5 mps 727 mmHg 63%
    18:00 +21°C° 1.3 mm 4 mps 727 mmHg 67%
    19:00 +21°C° 0.3 mm 3 mps 728 mmHg 71%
    20:00 +20°C° 0.3 mm 3 mps 728 mmHg 75%
    21:00 +19°C° 0.3 mm 2 mps 729 mmHg 79%
    22:00 +20°C° 0.1 mm 1 mps 729 mmHg 80%
    23:00 +20°C° 0.1 mm 1 mps 729 mmHg 82%

    9 Junio, Martes

    Tiempo Temperatura Precipitaciones Viento Presión Humedad
    00:00 +19°C° 0.1 mm 1 mps 729 mmHg 83%
    01:00 +19°C° 0 mm 1 mps 729 mmHg 84%
    02:00 +19°C° 0 mm 1 mps 729 mmHg 86%
    03:00 +19°C° 0 mm 1 mps 729 mmHg 87%
    04:00 +19°C° 0 mm 1 mps 729 mmHg 85%
    05:00 +19°C° 0 mm 1 mps 729 mmHg 83%
    06:00 +19°C° 0 mm 1 mps 729 mmHg 81%
    07:00 +20°C° 0.1 mm 1 mps 730 mmHg 75%
    08:00 +21°C° 0.1 mm 1 mps 730 mmHg 69%
    09:00 +21°C° 0.1 mm 2 mps 730 mmHg 63%
    10:00 +21°C° 0.3 mm 2 mps 730 mmHg 61%
    11:00 +22°C° 0.3 mm 3 mps 730 mmHg 59%
    12:00 +23°C° 0.3 mm 4 mps 731 mmHg 56%
    13:00 +23°C° 0.6 mm 4 mps 730 mmHg 57%
    14:00 +23°C° 0.6 mm 4 mps 730 mmHg 57%
    15:00 +23°C° 0.6 mm 4 mps 730 mmHg 57%
    16:00 +23°C° 0.3 mm 4 mps 730 mmHg 59%
    17:00 +22°C° 0.3 mm 3 mps 730 mmHg 61%
    18:00 +22°C° 0.3 mm 3 mps 730 mmHg 62%
    19:00 +21°C° 0 mm 3 mps 730 mmHg 65%
    20:00 +21°C° 0 mm 2 mps 731 mmHg 68%
    21:00 +21°C° 0 mm 1 mps 731 mmHg 72%
    22:00 +21°C° 0 mm 1 mps 731 mmHg 73%
    23:00 +21°C° 0 mm 1 mps 731 mmHg 74%

    10 Junio, Miércoles

    Tiempo Temperatura Precipitaciones Viento Presión Humedad
    00:00 +18°C° 0 mm 0 mps 731 mmHg 76%
    01:00 +18°C° 0 mm 0 mps 730 mmHg 77%
    02:00 +18°C° 0 mm 0 mps 730 mmHg 78%
    03:00 +17°C° 0 mm 0 mps 730 mmHg 78%
    04:00 +18°C° 0 mm 0 mps 730 mmHg 75%
    05:00 +20°C° 0 mm 1 mps 730 mmHg 72%
    06:00 +20°C° 0 mm 1 mps 730 mmHg 69%
    07:00 +22°C° 0 mm 1 mps 731 mmHg 62%
    08:00 +23°C° 0 mm 1 mps 731 mmHg 55%
    09:00 +24°C° 0 mm 2 mps 731 mmHg 48%
    10:00 +25°C° 0 mm 2 mps 731 mmHg 45%
    11:00 +26°C° 0 mm 3 mps 731 mmHg 41%
    12:00 +27°C° 0 mm 4 mps 731 mmHg 37%
    13:00 +27°C° 0 mm 4 mps 731 mmHg 38%
    14:00 +27°C° 0 mm 4 mps 730 mmHg 39%
    15:00 +27°C° 0 mm 4 mps 730 mmHg 40%
    16:00 +26°C° 0 mm 4 mps 730 mmHg 41%
    17:00 +26°C° 0 mm 4 mps 730 mmHg 42%
    18:00 +25°C° 0 mm 4 mps 729 mmHg 43%
    19:00 +25°C° 0 mm 3 mps 730 mmHg 47%
    20:00 +24°C° 0 mm 2 mps 730 mmHg 51%
    21:00 +23°C° 0 mm 2 mps 730 mmHg 55%
    22:00 +21°C° 0 mm 2 mps 730 mmHg 58%
    23:00 +22°C° 0 mm 1 mps 730 mmHg 60%

    11 Junio, Jueves

    Tiempo Temperatura Precipitaciones Viento Presión Humedad
    00:00 +22°C° 0 mm 1 mps 730 mmHg 62%
    01:00 +21°C° 0 mm 1 mps 729 mmHg 63%
    02:00 +21°C° 0 mm 1 mps 729 mmHg 63%
    03:00 +21°C° 0 mm 1 mps 729 mmHg 64%
    04:00 +21°C° 0 mm 1 mps 729 mmHg 61%
    05:00 +22°C° 0 mm 1 mps 729 mmHg 58%
    06:00 +22°C° 0 mm 1 mps 729 mmHg 56%
    07:00 +24°C° 0 mm 2 mps 729 mmHg 48%
    08:00 +26°C° 0 mm 2 mps 730 mmHg 41%
    09:00 +28°C° 0 mm 2 mps 730 mmHg 34%
    10:00 +29°C° 0 mm 3 mps 730 mmHg 31%
    11:00 +30°C° 0 mm 3 mps 730 mmHg 29%
    12:00 +30°C° 0 mm 3 mps 729 mmHg 27%
    13:00 +30°C° 0 mm 4 mps 729 mmHg 28%
    14:00 +30°C° 0 mm 4 mps 729 mmHg 29%
    15:00 +30°C° 0 mm 5 mps 728 mmHg 30%
    16:00 +30°C° 0 mm 5 mps 728 mmHg 30%
    17:00 +30°C° 0 mm 4 mps 728 mmHg 30%
    18:00 +29°C° 0 mm 4 mps 728 mmHg 30%
    19:00 +28°C° 0 mm 3 mps 728 mmHg 34%
    20:00 +27°C° 0 mm 3 mps 728 mmHg 37%
    21:00 +26°C° 0 mm 2 mps 728 mmHg 40%
    22:00 +26°C° 0 mm 2 mps 728 mmHg 39%
    23:00 +26°C° 0 mm 2 mps 728 mmHg 38%
    Mostrar más